Wind_Speed
25 25 25 25 26 26 26 27 28 29 29 30 30 30 30 30 30 31 30 30 29 28 28 27 28 28 27 27 28 27 27 26 25 26 23 19 22 23 19 18 18 18 18 17 16 15 14 14 13 12 12 12 13 14 14 15 16 14 16 18 18 18 17 16 15 10 12 13 5 1 7 9 9 13 12 13 16 11 13 19 16 18 17 13 14 12 10 12
24 25 26 26 26 26 26 26 27 28 29 29 30 31 31 31 31 31 31 30 30 29 28 27 28 27 27 27 27 28 27 27 28 28 22 20 23 21 19 19 19 19 18 17 15 14 13 12 11 11 11 10 12 13 13 15 18 17 16 19 20 17 16 16 15 10 8 7 2 1 5 9 9 11 13 14 17 14 14 18 18 19 17 15 17 13 10 12
24 25 25 26 26 26 27 27 27 28 28 28 29 30 31 31 32 32 32 31 30 29 28 28 27 28 27 27 27 27 27 28 29 27 23 22 23 21 21 20 19 19 17 17 16 13 10 8 8 9 10 11 12 13 14 15 18 19 17 19 20 18 18 16 14 11 7 4 0 3 5 9 8 9 12 15 17 16 16 15 18 24 21 17 17 14 11 11
24 24 25 25 26 26 27 27 28 28 28 28 29 30 31 31 32 32 32 32 30 30 29 28 28 28 27 27 27 26 27 28 29 27 24 24 23 22 22 21 20 19 18 18 17 14 10 8 9 10 11 13 13 14 16 17 16 17 20 21 17 16 19 17 12 13 11 6 2 1 2 9 10 10 9 13 17 16 16 16 20 26 22 19 18 15 12 11
24 24 24 24 25 25 26 27 28 28 28 28 28 29 30 31 32 32 33 32 31 30 29 28 28 28 27 27 26 26 25 22 25 29 26 24 25 24 23 22 21 21 20 19 19 16 13 12 12 13 14 14 14 15 17 18 16 15 19 21 18 17 17 15 10 12 14 11 9 2 1 6 9 12 9 11 15 14 17 18 22 24 19 19 19 16 14 12
24 24 25 24 25 25 26 27 27 28 28 28 28 29 30 30 31 32 33 32 31 30 29 28 28 28 27 27 26 27 24 17 20 26 25 25 26 26 25 24 23 23 23 22 21 18 16 15 15 16 16 16 16 16 16 17 17 17 17 18 21 21 17 14 10 10 13 12 11 8 6 7 8 12 11 12 11 12 19 18 19 21 15 14 17 16 15 14
24 24 24 25 25 25 26 27 27 27 28 28 29 29 29 30 31 32 32 32 31 30 29 29 29 29 27 27 27 27 27 24 21 21 22 25 27 28 28 27 25 25 24 23 22 20 18 16 17 17 17 17 16 17 16 16 17 19 18 16 19 22 18 15 11 9 12 13 13 11 12 10 10 12 11 15 10 9 17 16 16 19 15 13 14 15 15 15
24 24 24 24 25 25 25 26 27 26 27 28 28 29 30 30 31 31 31 31 31 30 29 29 29 29 27 28 28 28 30 28 23 22 21 23 25 28 29 28 27 27 25 24 23 21 18 18 19 18 17 18 16 16 16 16 18 20 21 17 16 19 19 18 15 10 9 11 14 14 12 11 13 14 12 17 13 5 13 17 16 14 14 14 13 16 16 14
25 25 24 24 24 24 25 26 26 26 26 26 27 29 29 30 30 31 31 31 31 30 29 29 29 30 28 28 28 32 32 24 20 23 23 24 24 25 28 29 29 28 27 24 23 22 20 19 20 19 18 17 16 16 16 17 19 19 20 20 18 16 16 18 19 16 12 9 13 15 14 12 14 15 13 18 16 10 10 15 17 15 11 12 14 16 15 13
26 26 25 24 23 24 24 25 26 26 26 26 26 27 28 29 30 30 30 30 30 29 28 29 30 29 29 29 30 33 30 21 18 18 22 28 26 23 24 28 30 29 28 25 24 24 22 20 18 18 18 17 17 17 17 18 18 17 18 20 22 19 15 16 18 18 16 13 14 15 15 14 14 15 14 17 17 14 10 9 18 20 14 12 15 17 15 13
27 27 26 25 24 24 24 24 25 25 26 25 25 25 26 27 29 29 30 29 29 28 28 28 29 30 30 32 35 35 26 18 17 18 24 29 26 24 21 23 29 30 28 26 25 24 23 20 17 17 19 18 18 17 18 19 18 16 15 16 20 21 19 17 17 17 17 16 16 14 15 15 15 17 17 17 16 15 14 10 12 17 16 16 17 17 15 12
27 27 26 25 24 24 24 23 24 24 24 24 24 24 25 26 27 28 28 28 28 27 27 27 29 31 31 35 38 33 24 21 20 20 26 30 26 25 22 19 24 28 29 28 26 25 23 21 19 19 19 17 17 17 16 17 19 18 15 15 16 19 22 21 18 17 17 17 17 15 16 18 19 20 19 17 15 15 17 16 14 16 17 18 19 17 14 12
27 27 27 26 25 24 24 23 23 23 23 23 23 23 24 25 25 26 27 27 26 26 26 27 29 31 33 40 39 29 25 27 29 27 29 31 27 26 26 23 22 26 30 29 26 24 23 21 21 21 19 18 17 15 13 12 17 19 17 17 16 17 22 23 20 17 17 17 17 17 18 20 21 20 22 18 15 17 18 18 18 20 18 18 20 18 15 14
27 27 27 26 25 24 23 23 22 22 22 22 22 23 23 23 24 25 25 25 24 24 25 26 29 31 36 41 35 28 29 31 33 34 32 30 28 28 29 26 24 24 27 31 27 21 21 21 20 22 21 21 18 16 15 12 14 18 19 19 19 19 20 21 23 20 19 18 17 20 20 19 19 20 23 20 16 18 19 18 18 18 17 19 19 16 14 12
27 27 26 26 26 24 23 22 21 20 20 20 21 22 22 23 23 23 23 22 22 22 24 27 29 31 36 40 33 28 30 34 36 36 31 27 28 29 28 26 25 23 24 29 29 20 18 21 22 23 22 22 20 18 19 17 16 17 20 21 21 21 19 19 25 24 21 20 18 22 22 20 19 19 21 21 17 18 18 17 18 17 16 17 16 14 12 11
26 26 26 26 25 24 22 20 19 19 18 19 19 20 20 21 21 21 21 20 20 22 24 26 28 30 34 35 29 28 32 36 36 31 27 27 29 29 26 25 25 25 23 24 27 22 18 21 24 24 21 21 22 21 19 19 19 20 21 22 21 21 21 19 24 28 24 22 22 23 22 22 20 19 20 21 19 19 18 17 18 19 15 14 15 15 12 12
26 25 25 25 25 24 22 19 18 17 16 16 17 18 18 18 19 19 19 19 19 21 23 25 26 30 34 29 25 28 33 34 30 27 28 28 29 29 26 23 24 26 23 20 25 24 20 21 23 23 23 22 22 22 21 20 20 21 21 22 20 20 21 20 21 28 25 23 24 23 24 25 21 20 24 24 20 20 19 17 21 22 14 15 17 15 13 15
26 25 24 24 24 23 21 18 17 16 14 15 16 16 16 16 17 16 17 18 19 22 24 25 26 26 23 19 21 23 23 26 27 28 29 28 28 29 26 21 21 25 23 19 22 23 20 21 23 23 25 26 25 26 26 23 19 20 21 20 21 19 20 23 21 26 27 24 24 23 27 30 23 21 24 23 21 20 18 17 22 21 16 17 15 13 16 19
26 24 23 23 22 21 19 17 16 15 14 15 14 14 13 13 13 13 15 18 21 25 25 25 27 24 11 1 6 13 13 16 24 28 28 27 28 29 26 20 20 23 23 21 22 24 22 23 24 26 29 29 29 29 28 24 18 18 20 19 20 20 20 24 22 23 27 26 25 24 28 31 27 24 25 23 21 19 17 16 20 22 19 18 16 16 20 19
25 24 23 22 21 20 18 15 15 14 14 14 12 12 10 8 7 9 14 18 21 23 22 21 22 22 16 7 4 9 11 12 20 25 25 25 27 29 26 21 21 24 25 24 23 24 24 25 29 32 31 28 28 28 25 25 23 19 18 19 21 21 20 22 22 23 27 26 26 25 27 28 23 21 24 22 20 18 17 15 15 18 18 19 22 22 22 19
25 23 22 21 19 19 16 14 13 13 13 12 10 11 9 7 4 7 12 16 16 18 20 21 19 21 20 15 5 9 12 14 20 22 22 24 26 28 28 25 25 27 28 26 22 23 25 29 33 32 28 25 26 26 23 25 27 23 20 19 19 22 22 20 20 26 28 24 25 25 25 24 19 21 23 22 21 19 18 16 12 11 13 17 22 24 23 22
24 23 22 20 18 17 15 13 13 13 12 10 9 10 10 13 11 8 11 14 14 16 18 23 25 25 22 22 14 13 15 17 22 23 23 25 28 30 29 28 28 28 28 27 24 26 30 33 31 27 26 25 24 25 25 24 27 26 22 20 19 21 21 19 20 26 28 24 24 25 25 24 22 22 21 22 22 21 19 18 14 9 10 15 20 23 22 23
23 22 20 19 17 15 14 13 13 13 12 9 9 9 11 18 14 9 13 17 17 18 20 23 30 28 26 27 18 15 18 20 23 24 25 27 30 31 28 30 30 27 28 31 31 29 30 32 27 24 25 26 25 25 25 25 26 27 24 22 22 21 20 20 21 22 24 23 21 23 25 23 21 21 20 21 21 21 18 16 15 13 15 16 20 21 20 21
23 21 19 18 15 14 13 13 13 13 12 9 9 9 12 18 14 11 14 19 22 21 21 23 28 29 28 29 20 17 20 21 22 24 27 30 31 31 29 29 29 28 29 33 33 30 27 25 24 25 26 27 28 25 25 26 26 27 25 23 22 22 22 22 20 19 19 20 19 23 23 20 22 20 19 19 18 21 20 16 15 15 17 15 15 18 19 20
22 20 18 16 14 13 12 14 14 14 13 11 9 7 9 14 13 12 12 14 21 19 18 22 26 29 27 28 24 21 20 22 23 22 27 32 31 31 29 27 29 30 30 31 32 30 25 21 23 27 28 28 29 27 27 27 26 26 26 24 21 19 23 22 19 21 20 20 23 25 18 16 23 23 20 20 18 21 21 18 18 18 19 18 14 16 19 20
22 19 17 15 14 12 13 15 14 14 12 9 7 5 7 10 8 8 8 11 18 16 17 22 25 26 25 30 29 23 21 25 26 22 26 33 31 30 28 26 29 29 28 29 29 29 26 22 25 28 29 29 29 29 27 27 27 25 24 26 24 19 23 23 21 25 22 22 25 27 19 13 23 25 22 22 20 21 21 19 21 21 23 24 20 18 18 18
21 19 16 15 13 13 15 15 14 13 7 4 7 8 8 8 7 4 4 9 13 10 18 19 19 21 24 30 31 27 25 24 26 24 25 31 30 30 29 26 28 27 27 27 27 28 27 24 25 28 29 30 30 30 27 27 28 24 20 25 26 22 23 24 23 24 19 20 21 28 27 16 21 28 26 24 22 22 23 20 19 20 22 25 25 22 20 20
21 18 16 14 13 14 16 15 14 14 10 8 9 11 12 9 8 6 3 6 3 7 18 18 14 14 17 26 32 32 24 18 26 30 25 27 30 31 31 28 27 26 26 28 27 26 25 25 25 27 30 30 31 30 26 27 29 24 19 22 25 24 24 24 23 23 17 17 19 28 31 18 17 30 28 24 25 24 24 22 22 23 23 23 24 22 21 23
20 17 15 14 14 15 17 16 14 14 15 14 10 10 13 10 8 7 4 5 4 9 14 16 15 14 16 25 31 32 25 18 26 30 26 26 29 31 32 28 26 25 26 28 27 23 24 27 24 24 29 29 28 28 26 27 27 25 20 19 23 26 26 24 22 23 19 16 19 27 32 19 12 23 25 24 28 27 25 24 26 26 23 23 21 20 21 23
19 17 15 15 15 16 18 17 14 12 14 14 10 8 11 10 9 8 5 6 6 7 11 15 16 15 19 27 29 31 29 22 22 27 27 26 28 30 29 26 24 25 27 28 27 25 23 25 24 23 26 27 26 26 28 26 24 26 24 21 21 24 25 24 25 25 19 12 19 26 30 23 12 16 25 28 29 28 27 28 28 26 24 26 24 21 22 22
18 16 15 15 16 18 19 17 15 13 14 16 15 11 11 13 12 8 6 9 8 6 12 15 15 16 21 27 28 29 31 25 22 28 30 26 29 31 28 27 28 26 28 31 31 29 26 25 27 26 24 24 24 24 27 26 24 26 26 22 20 20 22 23 23 23 13 9 21 26 28 28 17 12 22 26 26 28 32 33 33 29 28 29 26 24 23 22
18 17 16 15 18 20 18 18 19 17 17 18 17 14 13 12 12 13 10 7 6 9 13 12 14 19 21 25 26 27 31 28 25 30 32 28 31 35 32 30 31 28 30 33 32 31 30 28 28 27 24 24 23 23 25 26 26 28 28 23 19 16 14 14 13 15 10 12 23 26 26 25 16 12 18 20 23 31 37 37 36 33 30 29 27 27 26 24
18 17 16 16 19 20 18 19 21 19 17 15 14 16 14 8 10 18 18 11 3 6 11 12 13 18 22 25 25 26 29 29 27 29 32 29 29 34 33 30 30 28 28 32 32 30 28 27 28 29 28 27 26 25 27 28 29 31 32 27 20 13 8 8 8 9 11 16 23 27 24 17 11 11 17 19 20 27 34 35 36 34 31 27 27 27 26 26
18 17 16 17 20 21 19 20 21 19 16 15 15 16 15 12 12 15 18 17 11 5 7 12 12 16 23 25 24 26 29 29 28 28 30 30 30 34 35 33 32 30 28 30 32 30 25 23 30 33 29 30 31 29 27 27 29 33 31 28 25 20 12 8 8 9 10 15 21 24 17 10 13 13 17 22 24 25 29 32 34 33 29 26 27 27 24 24
17 16 16 17 20 21 20 20 21 20 16 16 18 18 18 16 14 12 12 14 13 9 6 10 12 15 22 24 22 25 29 28 28 30 30 31 32 34 36 36 35 33 30 27 27 30 27 24 29 32 28 30 32 30 28 26 27 31 30 27 27 28 21 12 12 14 10 10 15 13 2 10 19 20 21 24 26 29 32 33 33 30 27 26 26 26 23 23
16 16 16 17 19 20 20 20 21 20 18 18 19 21 24 20 13 9 8 8 9 8 6 9 14 15 18 23 23 25 28 27 27 29 29 30 31 32 34 35 35 35 32 27 26 28 27 24 27 30 29 31 32 31 31 28 26 28 32 31 28 28 24 16 14 16 9 5 9 10 11 16 20 17 18 23 26 31 32 30 29 27 26 26 25 24 24 25
14 15 16 16 17 18 20 21 21 20 20 20 21 23 23 21 14 11 11 10 8 7 7 10 15 14 15 20 23 25 29 28 27 29 28 28 30 32 34 34 34 35 32 28 25 25 24 22 25 30 29 30 31 32 32 29 27 28 31 32 27 25 25 18 13 12 8 5 8 15 18 19 18 12 15 23 25 28 30 28 26 26 26 26 25 24 25 25
13 14 15 14 15 18 19 20 20 21 20 20 23 24 21 18 15 15 16 13 10 9 10 11 11 12 13 17 20 24 30 30 27 29 28 26 28 31 33 33 34 35 33 28 23 23 24 20 22 29 28 26 30 33 32 30 30 29 29 29 25 20 21 20 13 9 8 6 7 14 20 19 18 19 24 27 28 29 30 29 28 27 26 25 25 25 24 24
11 12 12 12 15 18 19 20 20 20 20 20 23 24 21 18 14 14 13 9 8 9 10 10 9 10 11 14 19 22 29 31 27 26 27 26 26 30 34 33 33 36 36 32 25 22 24 20 19 27 28 26 30 33 33 32 33 30 26 29 29 22 19 20 18 14 11 8 6 9 12 12 16 22 26 28 32 34 33 32 31 28 26 26 26 25 24 23
9 10 10 12 16 18 19 19 18 19 20 21 22 20 18 15 13 14 12 10 10 9 7 8 7 9 9 12 19 21 22 29 29 25 26 26 23 28 34 33 32 34 35 34 28 22 22 19 16 24 29 28 30 33 33 34 36 34 30 30 31 27 21 20 20 20 16 9 6 5 4 6 10 18 22 25 30 33 33 33 32 29 27 27 26 25 24 23
10 10 9 11 16 19 19 18 18 20 21 22 22 20 17 14 13 13 10 10 12 9 7 8 6 8 8 9 17 19 17 22 29 27 25 26 24 24 31 33 32 34 34 33 30 24 20 18 16 24 31 32 32 33 33 32 34 35 32 30 30 28 24 16 14 20 21 14 10 8 3 6 9 16 23 24 25 26 28 31 33 32 29 28 27 25 23 21
12 12 10 13 16 18 19 19 19 19 20 22 21 19 17 15 15 14 10 9 11 10 8 8 7 8 9 7 11 17 16 19 25 28 24 25 25 22 27 32 31 33 34 33 31 26 20 17 17 23 29 30 29 29 31 32 31 32 31 29 28 29 28 20 12 17 20 16 15 13 3 5 12 22 27 25 23 22 24 29 32 32 31 31 29 25 23 21
13 13 11 14 18 18 18 19 18 18 19 20 19 17 16 16 15 14 11 9 10 9 9 8 8 9 10 8 9 14 16 18 20 27 25 24 26 23 25 30 31 31 33 32 30 27 21 17 19 23 25 28 27 27 31 32 30 31 31 30 29 29 32 27 18 17 18 15 16 13 2 7 15 24 28 26 23 21 24 28 29 31 31 30 27 24 22 21
13 14 12 15 19 20 20 18 15 17 18 16 16 17 17 17 16 14 12 11 9 9 11 11 9 8 9 9 9 12 13 14 15 22 26 24 25 23 23 29 32 30 31 31 29 27 23 18 21 21 17 19 22 22 28 33 32 31 31 31 29 27 29 29 22 18 15 16 18 11 2 9 16 21 25 25 22 22 24 25 25 27 29 27 24 22 21 20
15 15 13 16 20 21 21 19 15 15 16 16 17 18 16 16 16 14 13 11 9 10 12 12 9 8 9 9 11 13 14 13 15 17 24 24 22 22 24 28 31 30 29 29 27 26 23 18 20 20 12 12 15 17 25 34 33 30 31 32 29 26 26 26 24 20 14 17 21 12 10 16 18 20 23 23 23 23 23 21 20 22 24 23 22 22 21 20
14 10 8 15 18 19 20 20 18 17 16 17 17 16 16 17 14 13 16 15 13 13 14 14 12 10 11 12 12 13 14 15 15 16 22 23 18 19 24 27 30 28 27 28 26 24 22 19 19 22 19 17 19 21 25 29 30 29 30 31 31 30 29 27 26 23 20 20 18 11 16 22 24 25 25 24 23 22 22 22 22 21 21 21 21 21 20 20
12 7 8 15 15 16 18 20 21 17 12 15 16 12 14 16 13 14 18 18 18 18 18 18 16 13 13 12 11 13 13 13 14 15 21 24 19 17 21 27 29 27 26 28 26 21 20 20 19 20 20 19 19 21 24 27 29 31 29 29 30 31 29 27 26 24 22 18 9 10 17 23 27 28 27 26 24 24 24 24 23 23 22 21 21 20 19 19
11 4 6 14 13 12 15 17 19 16 12 14 15 11 12 15 14 14 18 20 21 20 17 17 16 16 16 13 11 13 13 11 14 16 20 25 21 15 18 26 27 25 26 28 26 20 17 18 19 18 18 17 16 17 23 29 29 28 28 27 29 30 28 24 23 23 21 15 10 16 19 21 28 29 27 27 27 26 28 25 21 21 20 19 19 19 18 17
8 5 2 14 15 11 14 15 15 16 15 14 14 12 11 13 14 16 21 24 22 16 14 15 14 14 17 16 14 16 15 12 12 15 19 23 22 16 18 24 24 23 26 28 27 22 16 16 19 17 15 17 18 16 18 27 25 24 27 24 24 28 26 17 12 12 15 15 16 21 21 21 29 31 29 29 29 28 28 23 19 19 19 19 18 16 15 15
5 7 2 12 14 12 15 16 13 15 15 14 15 13 10 11 13 15 18 21 18 13 13 16 16 14 15 17 18 20 18 13 10 12 16 21 25 22 18 21 23 23 25 27 27 24 19 13 14 13 10 13 17 14 14 21 22 22 25 24 23 25 19 14 11 10 16 20 19 21 25 25 28 32 32 33 32 29 25 19 16 18 18 18 17 15 15 14
5 4 2 5 10 11 11 12 13 13 14 15 15 12 9 11 12 12 12 13 15 14 14 14 15 15 16 17 19 21 20 16 13 14 17 19 26 27 20 16 21 24 25 25 24 23 19 10 9 14 12 10 15 15 11 14 18 18 15 12 16 18 14 15 14 11 15 21 22 24 28 28 29 33 35 34 32 27 21 17 17 18 18 18 17 16 15 14
4 4 2 4 7 9 6 7 10 11 13 14 12 11 11 11 10 10 9 8 8 10 12 14 14 16 19 20 19 19 22 21 15 14 20 19 21 27 25 19 20 24 25 23 21 22 19 11 10 16 15 10 13 14 10 10 13 11 7 9 9 13 14 15 16 13 11 16 20 20 21 24 30 35 35 33 30 26 21 19 19 19 19 20 18 17 16 15
Wind_Direction
276 275 273 271 270 268 267 265 262 261 258 257 256 255 253 252 252 252 251 250 250 248 248 247 246 245 243 243 242 241 239 237 237 237 235 229 231 234 231 229 230 228 226 226 226 226 228 229 228 224 223 222 221 211 205 218 219 219 228 231 236 236 235 238 243 253 257 244 217 215 209 215 230 219 219 209 210 214 189 192 196 197 211 205 187 205 214 209
277 276 274 272 270 268 267 266 263 261 259 258 256 255 254 252 251 251 251 250 249 248 248 247 246 245 243 242 242 240 239 238 236 236 233 228 232 233 229 225 224 224 222 223 222 223 224 225 226 216 212 212 223 219 207 217 218 215 223 229 231 232 233 236 241 254 266 250 203 246 203 203 221 213 211 205 205 202 191 199 206 210 214 203 191 195 201 199
278 276 275 273 271 269 266 265 264 261 260 258 256 255 254 253 252 251 250 249 249 249 248 247 247 246 244 243 242 242 240 239 238 238 232 227 232 231 228 224 221 221 218 220 219 217 215 217 228 214 207 212 219 220 213 216 217 217 223 229 231 232 235 239 246 247 270 308 220 272 225 206 214 204 207 208 205 202 203 198 205 224 222 205 200 197 199 194
279 277 275 274 272 271 268 265 263 262 260 258 256 255 253 252 252 251 250 249 248 248 248 247 247 246 245 244 243 242 241 243 243 240 231 227 229 228 227 223 219 219 216 219 218 209 197 201 223 218 212 217 219 218 216 214 214 219 223 229 231 232 236 243 254 242 253 285 234 332 184 199 210 202 203 205 205 208 217 209 211 231 227 211 209 193 185 192
280 278 276 275 273 272 269 267 264 262 260 259 257 255 254 252 251 251 250 249 248 247 247 246 246 246 245 244 243 242 242 248 251 244 234 227 225 223 224 223 220 218 216 219 220 209 193 200 216 219 217 218 219 218 218 215 216 224 227 232 231 230 238 245 259 244 244 249 229 237 152 218 221 209 204 199 209 211 213 213 212 228 234 223 213 185 179 194
280 279 277 276 274 272 270 268 265 263 261 259 257 255 254 252 251 250 249 249 247 245 245 244 245 245 243 243 241 241 236 235 245 243 234 227 224 222 221 222 221 219 217 217 219 211 196 201 211 216 219 219 220 219 220 216 220 230 233 236 233 234 245 249 259 246 232 232 224 227 255 260 211 204 215 206 221 224 210 208 204 214 229 227 209 181 179 196
281 279 278 277 275 273 272 270 267 264 262 260 258 256 253 252 251 249 248 248 246 244 243 243 244 243 242 242 240 240 233 225 234 240 236 231 225 221 220 220 221 220 220 218 218 213 202 203 210 215 219 222 223 223 224 221 222 231 234 237 237 240 246 243 248 243 230 233 229 233 255 255 206 209 225 207 215 242 225 213 201 209 218 222 213 192 185 196
285 282 279 277 276 275 273 271 269 267 263 260 258 256 254 252 251 250 249 247 245 243 242 241 242 242 241 240 239 239 234 227 232 239 237 235 229 223 219 218 221 222 222 220 219 215 207 208 211 213 220 223 225 225 226 227 228 230 234 237 239 243 243 238 238 241 246 241 227 229 244 239 213 217 227 211 204 223 233 216 194 198 214 217 214 204 197 196
288 285 283 280 277 276 274 272 271 268 266 262 259 257 255 253 251 250 249 247 245 242 241 239 240 240 238 239 239 238 236 226 231 243 239 234 232 226 221 218 220 222 222 220 218 214 209 212 214 212 220 225 226 229 228 230 232 230 234 237 238 242 240 237 236 238 247 238 222 226 234 230 217 222 229 217 204 193 223 226 204 190 196 209 211 211 204 197
289 288 286 284 281 278 275 273 271 270 268 265 262 259 256 254 252 250 249 247 245 242 240 238 238 238 236 236 236 237 237 222 223 239 237 233 231 229 224 219 219 220 222 219 217 214 207 211 216 216 224 230 231 234 231 231 235 234 236 237 237 240 240 238 236 235 238 231 224 225 228 225 216 220 217 207 198 188 194 225 221 204 196 212 217 214 207 201
289 289 287 286 285 282 278 274 271 269 268 266 264 262 259 256 253 251 249 247 246 243 240 238 238 237 235 235 233 234 229 214 217 224 230 233 230 229 226 219 219 218 220 219 218 215 207 208 213 218 227 232 234 237 238 235 236 240 240 237 238 238 239 238 234 231 231 228 224 221 225 221 215 212 202 197 192 187 187 182 207 212 210 219 214 207 204 199
290 288 287 286 285 284 281 276 271 268 267 267 266 264 261 258 255 252 250 248 246 242 240 238 238 238 236 234 232 230 220 208 214 219 228 233 231 230 226 218 217 217 218 218 218 215 207 207 212 219 225 229 233 237 243 239 235 241 238 237 243 240 237 235 231 228 225 225 216 210 223 219 215 209 193 196 192 186 192 182 199 221 217 217 210 202 198 191
291 290 288 286 285 285 282 278 273 269 267 266 265 264 263 260 258 255 251 248 245 243 240 237 238 238 237 237 233 226 220 216 220 221 223 226 225 228 226 218 213 214 215 215 216 215 209 207 214 222 225 229 232 232 240 240 235 237 236 238 244 242 237 230 226 224 219 219 206 203 221 217 213 208 194 199 197 187 193 193 216 232 222 217 208 200 195 189
293 291 290 288 287 285 283 279 275 271 269 266 264 263 262 261 258 255 252 248 245 242 239 237 237 238 239 240 234 223 221 223 226 226 224 222 221 225 226 220 216 214 213 212 208 211 215 211 215 224 227 230 232 235 239 240 235 232 233 236 238 242 240 227 219 218 213 212 204 203 218 217 207 208 202 201 197 188 189 198 220 228 215 208 200 197 201 195
294 292 291 290 289 287 283 279 276 275 271 266 263 261 260 260 258 257 253 249 246 241 238 237 237 239 242 243 236 224 223 225 226 228 227 222 220 224 226 222 218 215 214 212 203 200 215 215 216 223 226 227 232 239 239 236 233 227 227 229 231 236 243 230 212 209 209 208 206 204 215 221 207 204 204 197 191 185 185 197 216 226 217 205 202 211 213 204
294 292 291 290 288 286 282 278 278 277 272 267 261 259 259 259 259 257 254 250 245 240 236 235 236 238 243 245 239 227 226 226 227 229 227 222 220 220 221 220 217 214 214 212 201 195 206 213 215 219 221 223 227 233 235 232 228 222 222 226 228 228 237 238 212 203 205 205 207 204 212 224 210 199 199 192 185 185 189 190 203 223 222 200 202 215 216 211
295 293 291 289 288 285 280 276 276 276 272 265 259 258 259 260 259 255 252 247 241 239 235 233 235 238 242 243 236 229 229 229 226 226 224 220 218 216 213 214 214 213 211 210 203 195 199 207 210 214 217 221 220 221 227 228 221 218 218 223 230 226 230 237 211 195 199 206 205 201 214 227 214 198 194 189 186 187 193 192 203 219 207 184 194 202 210 219
296 293 290 289 287 283 277 273 274 274 269 261 258 260 261 261 260 256 251 244 237 234 231 228 227 233 246 250 243 237 236 235 225 221 224 217 215 214 206 204 212 211 207 209 206 198 200 204 206 211 213 215 214 212 219 221 216 217 215 216 229 229 225 232 213 189 195 204 201 201 218 226 217 201 189 184 188 190 193 199 206 206 183 179 196 202 213 227
296 292 290 288 285 282 275 269 269 269 264 261 260 261 261 261 260 260 255 247 238 232 230 232 229 228 233 354 276 243 229 240 228 219 223 217 212 210 199 197 209 207 201 205 204 197 198 199 202 207 209 210 210 212 217 220 219 220 216 214 224 229 225 230 223 191 190 198 199 208 220 224 223 207 189 182 186 188 190 200 201 193 184 180 182 192 206 221
295 291 289 287 284 280 272 264 263 262 261 259 259 256 250 252 274 281 264 251 245 241 240 242 245 242 218 125 22 243 208 227 227 218 217 213 211 205 193 194 204 202 199 200 200 196 195 199 205 207 208 208 210 214 218 223 230 229 223 219 222 229 226 229 224 192 185 196 200 210 222 228 224 192 179 181 185 188 191 204 212 206 203 188 181 192 202 214
293 289 287 285 282 277 267 258 254 253 254 253 254 250 227 203 247 284 270 260 249 243 238 229 238 249 215 160 136 221 208 204 206 210 208 203 206 200 192 193 197 200 199 197 197 197 199 207 212 209 209 209 210 216 217 223 234 238 233 224 221 228 228 228 216 184 179 197 204 208 222 226 207 179 182 191 194 199 199 203 210 209 211 203 200 206 208 216
292 287 286 284 278 271 261 249 246 247 246 246 249 246 221 203 211 247 266 268 251 235 234 216 217 236 209 167 162 193 212 206 193 201 199 193 199 196 192 193 195 199 196 194 196 198 206 213 214 210 208 210 211 215 217 223 232 238 240 231 221 225 229 227 212 186 176 194 205 203 217 217 196 190 194 195 198 201 201 200 198 199 215 225 228 220 209 213
289 287 284 281 274 266 254 242 242 240 235 238 244 242 219 210 218 258 264 265 257 237 236 218 209 221 202 180 189 199 208 206 195 201 196 190 197 194 192 194 196 198 194 196 198 198 207 214 211 207 207 208 211 213 214 220 229 234 238 238 227 216 220 221 212 199 183 190 200 199 214 213 189 188 191 193 200 197 196 191 189 209 217 220 227 216 201 208
287 286 281 278 269 259 246 236 235 232 228 232 245 247 224 218 229 263 259 262 263 243 236 229 216 218 202 186 203 211 205 205 201 206 199 192 195 193 194 196 196 199 198 199 202 205 211 212 206 205 206 206 210 212 210 215 226 230 231 240 235 210 213 222 204 193 188 191 201 200 207 195 172 175 180 189 193 185 188 180 178 212 218 208 205 197 196 208
285 285 279 274 264 252 237 230 229 226 224 226 246 259 237 235 245 261 262 265 272 257 232 227 222 222 206 191 204 207 207 212 203 204 202 194 192 192 194 198 198 201 203 201 204 212 214 210 204 203 206 205 208 211 208 211 219 226 226 231 235 211 212 222 188 171 184 197 205 205 202 180 176 182 178 183 185 181 188 184 183 208 215 209 199 192 201 210
282 283 278 270 258 244 226 223 225 222 223 229 249 253 232 239 238 259 274 263 275 268 223 218 220 219 208 197 200 199 212 219 201 195 202 198 192 193 194 197 202 204 203 201 206 215 214 208 205 203 205 204 207 211 209 209 215 223 222 221 232 223 214 218 182 169 191 203 207 212 212 184 179 188 186 185 185 184 188 185 192 212 219 217 214 207 206 211
279 281 275 265 251 234 219 219 219 211 203 208 233 230 219 224 211 223 271 257 273 249 200 202 209 213 209 200 193 191 207 214 199 190 197 202 196 193 198 198 201 204 201 199 205 212 211 206 204 202 204 204 206 211 207 206 213 220 217 217 231 229 218 218 185 173 198 208 211 216 217 210 186 189 191 189 188 187 186 181 187 209 217 216 217 215 213 218
277 277 270 260 243 225 217 217 215 207 192 182 214 227 216 213 205 203 246 252 255 159 174 181 189 201 202 197 192 193 199 198 196 190 187 204 200 192 202 202 199 203 199 200 206 207 204 204 203 199 203 206 206 209 205 204 212 218 213 213 225 229 231 234 204 183 191 202 217 216 212 225 207 191 189 188 191 188 181 179 186 198 208 210 211 212 213 220
273 272 266 255 235 220 216 213 208 213 210 196 203 217 211 209 202 204 259 255 184 148 166 171 178 187 183 188 192 195 198 193 198 190 179 199 199 191 203 204 200 204 202 205 209 204 200 202 205 201 202 207 206 206 205 206 210 213 214 211 220 229 235 247 232 200 187 196 221 216 207 223 225 194 193 192 193 190 180 182 192 196 203 206 201 200 206 214
268 268 261 249 230 217 215 208 199 211 218 211 210 204 201 202 198 205 235 232 201 159 172 183 189 188 179 184 189 195 200 198 196 189 181 194 196 193 204 205 204 206 205 209 210 207 203 201 206 207 205 206 206 205 206 208 207 209 221 220 217 226 232 253 251 213 194 205 219 216 208 215 224 200 199 195 194 193 182 183 192 194 201 207 204 204 209 214
265 265 257 246 228 216 212 204 197 201 211 222 224 209 196 197 201 215 217 223 232 172 174 195 197 189 184 185 187 193 200 199 193 186 184 190 193 195 201 203 205 207 205 209 210 210 209 203 207 211 208 206 205 203 202 206 204 208 226 224 208 217 230 251 244 206 192 213 215 216 208 207 218 208 196 194 196 197 188 190 196 198 203 207 209 213 216 218
262 262 254 242 224 214 211 204 200 200 205 219 221 203 195 203 213 223 218 217 221 178 182 197 192 190 191 188 188 193 197 199 195 187 185 188 191 195 199 199 201 202 202 205 205 207 210 208 208 209 206 201 197 197 199 203 205 210 224 221 203 205 219 240 226 190 199 220 214 218 209 202 210 202 189 190 196 196 191 197 207 209 210 209 211 218 220 222
261 259 252 240 221 212 209 205 204 206 207 210 205 190 191 211 225 223 225 233 235 176 190 200 194 191 190 189 193 194 196 199 198 189 187 191 192 196 200 200 199 200 200 201 201 200 206 209 205 203 200 196 195 197 197 198 200 208 219 218 206 197 200 221 209 190 210 216 213 217 210 191 176 178 186 193 199 195 190 199 212 216 216 214 216 221 226 228
259 257 250 236 218 210 207 205 206 208 211 203 188 184 196 220 229 224 230 240 260 271 209 201 201 193 189 193 196 193 193 199 199 190 187 193 196 195 200 203 201 201 199 200 200 196 200 206 200 196 197 197 201 202 198 194 197 204 211 213 207 204 204 209 212 210 211 217 222 224 217 168 139 150 173 191 202 202 198 204 212 216 217 217 221 226 230 230
257 256 248 230 215 209 206 207 206 207 213 200 185 193 210 222 228 230 239 241 247 264 236 205 204 198 193 196 199 194 192 198 200 193 189 195 200 196 198 202 202 201 199 200 202 198 202 208 197 194 198 199 201 204 200 195 197 203 207 209 208 207 207 204 217 224 220 228 228 221 167 111 137 150 161 175 189 196 203 208 211 216 218 219 226 227 223 215
255 254 243 225 213 207 203 206 206 208 213 199 193 210 219 221 226 235 257 259 241 239 229 206 202 202 198 196 200 197 194 198 200 195 194 198 202 200 198 202 203 201 199 200 201 196 201 208 196 191 198 201 200 203 204 199 197 202 206 207 207 207 207 199 207 223 234 260 211 163 106 116 138 151 168 174 180 188 198 206 210 216 219 223 226 218 208 202
258 251 235 220 211 205 202 205 205 207 211 203 206 220 223 230 244 253 267 281 269 247 237 218 203 201 205 200 199 195 194 201 202 197 196 197 202 201 198 201 203 201 200 201 201 196 199 204 195 191 197 200 200 202 207 207 201 201 204 205 204 208 213 206 200 214 221 245 204 154 136 147 151 151 177 186 188 190 197 205 211 216 219 223 219 205 198 197
258 244 227 213 205 199 199 205 204 207 211 209 217 225 225 232 246 250 256 269 277 263 250 238 208 194 206 210 207 195 191 201 204 198 197 198 203 202 198 200 202 201 200 198 201 202 205 205 190 190 198 197 195 203 209 207 204 205 202 201 205 210 213 210 207 208 200 223 217 153 144 163 172 165 174 190 198 199 203 209 213 216 217 216 207 198 197 196
248 233 218 204 197 192 193 201 205 208 211 213 221 228 227 230 238 248 255 266 276 264 248 245 223 201 210 220 221 204 192 198 202 199 197 199 204 201 197 199 199 202 202 198 201 206 210 212 187 186 198 192 189 203 208 199 198 205 202 200 210 219 217 215 218 215 206 215 218 165 152 172 188 185 183 190 201 205 207 210 214 216 213 207 200 197 198 196
225 213 210 200 189 185 189 197 203 209 214 217 223 231 236 239 247 257 266 264 263 264 250 248 238 219 220 226 229 222 205 201 199 199 201 202 202 195 195 198 196 200 201 198 204 208 207 216 198 185 194 190 188 200 204 195 192 201 205 202 205 213 217 218 219 217 215 214 202 184 162 143 174 202 202 194 200 208 210 212 217 217 209 203 201 199 196 193
201 196 199 195 184 182 188 193 199 207 216 222 226 233 241 249 254 258 267 259 254 264 266 263 255 233 233 231 226 227 230 217 203 200 203 203 204 195 193 197 194 194 197 196 202 205 200 207 200 185 189 193 193 196 198 197 191 195 206 205 199 204 210 211 211 213 218 224 216 203 173 100 141 186 198 196 201 208 212 216 219 219 210 200 199 198 192 188
194 188 184 188 186 185 189 196 202 208 217 225 228 233 241 250 258 260 268 263 251 255 262 265 265 249 244 243 226 222 242 248 218 204 203 204 208 205 197 197 193 192 195 196 199 199 197 202 195 186 191 197 198 197 201 205 200 197 204 209 203 201 208 213 207 207 217 230 229 220 201 104 152 170 178 191 204 210 215 218 218 217 211 200 197 194 186 184
195 192 187 186 186 186 191 201 206 211 222 230 233 237 243 251 258 259 263 261 249 246 252 260 263 257 249 245 236 222 237 262 234 204 202 207 208 207 201 196 194 193 196 197 195 193 200 207 195 189 195 199 198 198 204 211 214 206 204 211 213 204 204 214 216 211 219 228 224 222 190 125 162 170 168 177 196 206 211 216 216 215 210 201 194 187 182 184
197 200 198 184 180 185 192 198 203 213 226 234 238 239 241 248 250 252 256 251 246 248 255 263 263 260 258 246 242 231 230 260 249 205 198 206 206 203 200 196 195 195 195 194 189 189 198 200 190 188 191 196 198 195 198 207 216 212 204 210 220 213 204 211 218 216 221 229 226 224 138 143 168 171 165 171 190 202 205 212 215 210 203 194 187 182 182 186
196 205 204 183 181 188 190 190 197 215 223 225 235 239 240 246 246 246 251 246 245 251 254 262 260 249 252 239 239 244 228 239 260 222 199 204 205 198 197 196 195 195 194 190 184 186 193 192 190 192 188 192 200 195 192 198 204 208 206 208 216 220 210 204 207 208 207 222 226 210 140 147 164 170 171 182 197 202 203 207 204 198 193 186 183 184 186 190
197 212 194 169 178 191 190 189 199 214 217 216 228 238 237 243 245 242 243 238 236 236 234 244 247 237 235 225 229 244 226 226 254 237 207 205 200 191 193 194 192 193 193 191 186 185 192 197 197 200 201 199 200 200 195 195 199 205 207 206 208 217 216 204 200 204 204 212 217 190 158 160 165 174 181 191 201 203 206 205 196 190 189 186 187 190 192 197
203 209 163 159 177 193 195 197 203 215 223 214 218 232 239 242 245 244 245 245 248 248 246 249 249 238 226 218 230 241 228 229 242 225 208 205 195 186 191 191 190 192 192 191 189 186 193 203 202 204 211 207 201 205 200 197 202 204 204 206 206 213 219 214 210 210 210 213 197 161 174 171 164 173 184 193 203 208 212 210 199 191 190 188 190 195 198 202
214 236 150 168 181 191 202 206 208 221 235 224 224 241 247 240 238 242 249 258 264 261 256 252 244 232 219 210 229 236 226 239 236 210 201 200 193 184 185 184 187 192 190 188 190 189 194 204 202 204 214 210 213 224 209 201 205 204 204 208 205 208 216 220 223 220 210 206 169 157 173 172 164 171 183 190 198 207 213 212 200 192 192 191 193 198 204 208
225 329 77 176 183 190 204 207 213 226 233 234 241 249 247 241 241 246 250 256 260 254 245 244 236 225 218 213 224 230 226 242 235 197 184 190 193 191 182 178 181 186 187 188 190 194 199 204 201 202 208 209 223 244 215 199 202 203 206 212 205 205 210 206 210 207 182 168 158 157 161 164 168 175 182 187 193 202 208 207 195 192 196 197 199 203 208 214
249 339 43 184 198 201 196 195 206 224 230 238 248 246 243 250 252 254 252 248 248 242 238 244 235 219 217 218 225 231 229 239 238 200 189 195 197 192 183 181 183 183 185 187 189 197 205 202 188 186 195 206 218 233 214 200 202 202 205 213 212 207 196 167 154 148 139 141 147 154 154 156 169 181 187 192 198 203 205 201 193 195 200 202 204 208 213 219
265 309 6 208 215 199 190 194 199 213 227 237 247 245 247 257 253 252 252 247 250 247 236 239 232 217 217 219 224 232 231 236 242 215 203 208 200 190 185 188 189 186 186 186 185 191 197 189 168 178 191 207 211 215 213 201 200 198 192 198 209 201 172 146 151 148 137 140 148 160 165 167 177 188 194 197 201 203 202 198 198 199 201 204 209 214 220 224
259 244 293 281 222 197 214 232 204 205 222 231 239 241 248 262 252 245 259 268 274 257 227 218 213 209 216 215 215 226 226 227 232 199 191 205 204 193 190 187 186 187 187 184 183 187 192 184 173 182 187 198 208 208 203 185 183 185 154 114 139 167 158 143 139 133 138 151 155 164 178 186 189 194 199 200 200 202 202 200 201 203 205 210 213 218 222 224
Height
3077 3077 3076 3076 3076 3076 3076 3077 3077 3077 3078 3078 3078 3079 3080 3080 3081 3082 3083 3084 3086 3087 3089 3090 3091 3092 3094 3095 3096 3097 3098 3099 3100 3100 3103 3105 3105 3106 3108 3109 3111 3112 3114 3115 3116 3118 3119 3121 3122 3124 3125 3127 3128 3130 3133 3135 3137 3139 3139 3138 3138 3137 3137 3137 3137 3137 3137 3136 3134 3134 3136 3137 3139 3139 3139 3141 3141 3143 3144 3143 3140 3139 3142 3145 3146 3147 3149 3150
3074 3074 3074 3074 3073 3073 3073 3073 3074 3074 3075 3075 3076 3076 3076 3077 3078 3079 3080 3081 3083 3084 3086 3088 3088 3090 3091 3092 3093 3094 3096 3097 3097 3097 3101 3103 3103 3105 3107 3108 3109 3111 3113 3114 3115 3117 3119 3120 3122 3123 3124 3126 3129 3130 3132 3134 3135 3136 3137 3136 3135 3135 3136 3136 3136 3137 3135 3134 3133 3133 3135 3136 3139 3139 3139 3140 3141 3143 3142 3141 3139 3140 3144 3145 3145 3147 3148 3150
3071 3071 3071 3071 3071 3071 3070 3070 3070 3071 3071 3072 3073 3073 3074 3074 3075 3075 3077 3078 3080 3081 3083 3085 3086 3087 3088 3090 3091 3092 3093 3094 3094 3096 3100 3101 3101 3104 3105 3106 3108 3110 3112 3113 3114 3116 3118 3120 3122 3123 3125 3126 3129 3130 3131 3133 3133 3134 3135 3134 3133 3134 3134 3135 3136 3136 3134 3132 3133 3134 3135 3136 3138 3138 3139 3139 3140 3142 3141 3141 3139 3139 3143 3144 3145 3147 3148 3150
3069 3068 3068 3068 3068 3068 3068 3067 3067 3067 3068 3069 3070 3070 3071 3071 3072 3072 3073 3075 3077 3079 3080 3082 3083 3084 3086 3087 3088 3090 3091 3092 3092 3094 3097 3099 3100 3102 3103 3105 3107 3109 3111 3112 3113 3115 3117 3121 3122 3123 3125 3126 3128 3130 3131 3131 3132 3132 3132 3131 3132 3134 3133 3134 3135 3134 3133 3133 3133 3134 3135 3136 3137 3138 3138 3139 3141 3141 3141 3141 3137 3137 3142 3144 3144 3146 3147 3149
3066 3065 3065 3065 3065 3065 3065 3064 3064 3065 3065 3065 3066 3067 3067 3068 3069 3069 3070 3072 3074 3076 3077 3079 3080 3081 3083 3084 3086 3087 3089 3092 3090 3090 3094 3097 3098 3100 3102 3103 3105 3107 3109 3111 3112 3113 3116 3120 3123 3124 3124 3126 3127 3129 3129 3130 3131 3131 3130 3130 3131 3132 3132 3133 3133 3132 3133 3133 3133 3134 3135 3136 3136 3137 3138 3139 3141 3139 3138 3139 3135 3134 3140 3144 3144 3144 3145 3148
3063 3063 3062 3062 3062 3062 3061 3061 3061 3062 3062 3062 3063 3063 3064 3064 3065 3066 3067 3069 3071 3073 3074 3076 3077 3078 3080 3082 3083 3084 3088 3090 3085 3086 3091 3094 3096 3098 3099 3101 3103 3105 3107 3108 3110 3112 3114 3118 3121 3123 3124 3124 3126 3127 3128 3129 3130 3129 3129 3130 3129 3129 3131 3132 3132 3131 3132 3131 3131 3134 3135 3135 3135 3136 3137 3139 3140 3136 3135 3136 3134 3135 3140 3143 3144 3144 3145 3147
3061 3060 3059 3059 3059 3058 3058 3058 3058 3059 3059 3059 3059 3060 3060 3061 3062 3063 3064 3066 3067 3070 3071 3073 3074 3075 3078 3079 3080 3081 3084 3085 3083 3085 3089 3091 3093 3095 3097 3099 3101 3103 3105 3106 3109 3111 3113 3116 3119 3121 3123 3123 3124 3126 3127 3128 3128 3128 3128 3129 3128 3128 3129 3130 3131 3130 3130 3129 3131 3134 3134 3134 3135 3137 3138 3139 3138 3134 3134 3136 3135 3137 3140 3141 3143 3144 3145 3147
3058 3057 3057 3056 3056 3055 3055 3054 3055 3055 3055 3056 3056 3056 3057 3057 3058 3059 3061 3062 3064 3066 3068 3070 3071 3072 3074 3075 3077 3078 3079 3082 3083 3084 3088 3089 3090 3092 3094 3097 3099 3101 3103 3105 3108 3110 3112 3115 3117 3120 3122 3122 3124 3124 3126 3127 3126 3126 3126 3127 3127 3127 3128 3129 3129 3129 3128 3129 3131 3133 3133 3133 3135 3137 3137 3139 3138 3134 3132 3135 3136 3137 3140 3142 3143 3144 3145 3146
3055 3055 3054 3053 3053 3052 3051 3051 3051 3052 3052 3052 3053 3053 3054 3054 3055 3056 3057 3059 3061 3063 3065 3067 3067 3069 3071 3072 3074 3073 3075 3083 3084 3083 3085 3086 3088 3090 3092 3095 3097 3099 3101 3104 3106 3108 3110 3113 3116 3118 3120 3121 3123 3123 3124 3125 3124 3124 3125 3126 3126 3126 3127 3127 3128 3128 3128 3129 3130 3131 3132 3133 3135 3135 3136 3137 3138 3135 3131 3132 3136 3137 3140 3143 3143 3144 3145 3145
3053 3052 3051 3051 3050 3049 3048 3048 3048 3048 3049 3049 3050 3050 3050 3051 3052 3053 3054 3056 3058 3060 3062 3063 3064 3066 3067 3069 3069 3068 3073 3082 3083 3081 3082 3083 3086 3088 3090 3092 3094 3097 3099 3102 3104 3106 3108 3112 3115 3117 3119 3120 3121 3122 3123 3123 3123 3123 3124 3124 3124 3125 3126 3126 3126 3127 3128 3128 3129 3130 3131 3132 3134 3134 3134 3135 3136 3136 3133 3131 3134 3137 3140 3143 3143 3144 3144 3145
3050 3049 3048 3048 3047 3046 3046 3045 3045 3045 3046 3046 3047 3047 3047 3048 3049 3049 3051 3052 3054 3057 3059 3060 3061 3062 3063 3064 3064 3065 3073 3080 3081 3080 3080 3081 3084 3086 3088 3090 3092 3095 3097 3100 3102 3104 3107 3110 3114 3117 3117 3118 3119 3120 3121 3121 3121 3122 3122 3122 3122 3123 3124 3124 3124 3126 3126 3127 3128 3130 3131 3131 3132 3132 3132 3134 3133 3135 3135 3134 3134 3136 3139 3142 3142 3143 3143 3145
3047 3046 3046 3045 3044 3043 3043 3042 3042 3042 3043 3043 3044 3044 3045 3045 3045 3046 3048 3049 3051 3054 3055 3057 3058 3058 3060 3058 3057 3063 3072 3075 3075 3077 3077 3079 3082 3083 3086 3088 3090 3093 3095 3098 3100 3103 3105 3109 3112 3114 3116 3117 3118 3119 3119 3119 3120 3120 3121 3121 3121 3121 3121 3122 3123 3124 3125 3125 3127 3129 3129 3129 3130 3130 3130 3132 3132 3134 3137 3136 3135 3136 3139 3141 3141 3142 3143 3143
3044 3043 3043 3042 3041 3041 3040 3039 3039 3040 3040 3041 3041 3041 3042 3042 3043 3043 3045 3046 3048 3051 3052 3054 3054 3055 3054 3051 3055 3065 3069 3069 3070 3071 3073 3076 3079 3081 3083 3086 3088 3090 3093 3095 3098 3101 3104 3107 3110 3112 3114 3116 3116 3118 3117 3117 3118 3118 3119 3119 3120 3119 3118 3119 3121 3122 3123 3124 3126 3127 3127 3126 3127 3129 3129 3131 3132 3133 3136 3135 3134 3135 3138 3139 3140 3141 3142 3142
3041 3040 3039 3039 3038 3038 3037 3037 3037 3037 3038 3038 3038 3039 3039 3039 3040 3040 3042 3043 3046 3048 3049 3050 3050 3051 3049 3046 3054 3063 3064 3065 3066 3066 3069 3074 3077 3078 3081 3084 3086 3088 3090 3093 3096 3100 3103 3105 3108 3110 3112 3113 3114 3116 3115 3116 3116 3116 3117 3117 3117 3116 3115 3116 3119 3120 3122 3123 3124 3126 3125 3124 3126 3127 3127 3130 3131 3132 3135 3133 3131 3133 3136 3137 3139 3140 3141 3143
3038 3037 3036 3036 3035 3035 3034 3034 3034 3035 3035 3035 3036 3036 3036 3037 3037 3038 3040 3041 3043 3045 3046 3047 3047 3047 3044 3044 3053 3060 3061 3061 3061 3063 3068 3073 3075 3076 3079 3082 3084 3087 3089 3091 3094 3098 3102 3104 3106 3108 3109 3111 3113 3113 3113 3114 3114 3115 3114 3114 3114 3114 3113 3114 3115 3117 3119 3121 3123 3124 3123 3122 3124 3125 3126 3129 3130 3132 3134 3133 3130 3130 3134 3137 3138 3138 3140 3142
3035 3034 3033 3033 3032 3032 3032 3032 3032 3032 3032 3033 3033 3034 3034 3034 3035 3036 3037 3039 3041 3042 3043 3043 3044 3044 3042 3042 3050 3056 3055 3055 3058 3064 3068 3070 3072 3074 3077 3080 3082 3085 3087 3089 3092 3095 3099 3102 3104 3105 3107 3109 3110 3111 3112 3111 3111 3111 3111 3111 3111 3112 3112 3111 3111 3113 3117 3119 3120 3122 3121 3121 3121 3123 3125 3127 3129 3131 3133 3134 3130 3128 3133 3137 3136 3137 3140 3141
3032 3032 3031 3030 3030 3030 3029 3030 3030 3030 3030 3031 3031 3031 3032 3033 3033 3034 3035 3037 3038 3039 3040 3041 3042 3041 3039 3041 3047 3049 3050 3053 3059 3063 3064 3066 3069 3072 3075 3078 3080 3083 3085 3088 3090 3093 3096 3099 3101 3103 3104 3106 3107 3109 3109 3107 3106 3108 3108 3109 3109 3110 3110 3109 3108 3110 3114 3116 3118 3120 3120 3118 3119 3121 3123 3125 3128 3130 3132 3134 3130 3127 3132 3136 3136 3139 3140 3140
3030 3029 3028 3028 3027 3027 3027 3028 3028 3028 3029 3029 3029 3030 3031 3031 3032 3033 3033 3034 3035 3036 3036 3037 3038 3039 3039 3041 3044 3047 3050 3052 3056 3059 3060 3063 3067 3069 3073 3076 3079 3081 3084 3086 3088 3091 3094 3096 3099 3100 3100 3101 3103 3104 3103 3102 3104 3105 3106 3107 3108 3107 3108 3106 3106 3108 3111 3114 3116 3119 3118 3115 3117 3121 3122 3124 3127 3129 3131 3132 3129 3128 3132 3134 3136 3139 3139 3138
3027 3026 3026 3025 3025 3025 3025 3026 3026 3027 3027 3027 3028 3029 3029 3030 3030 3031 3032 3032 3032 3031 3032 3034 3034 3037 3041 3041 3043 3046 3049 3051 3053 3055 3057 3060 3064 3067 3070 3075 3078 3079 3082 3084 3085 3088 3091 3094 3095 3094 3094 3095 3098 3100 3100 3102 3103 3104 3104 3105 3106 3105 3105 3104 3104 3106 3109 3113 3115 3116 3115 3112 3114 3118 3121 3123 3126 3128 3131 3131 3127 3128 3131 3134 3136 3136 3136 3137
3025 3024 3023 3023 3023 3023 3023 3024 3024 3025 3025 3026 3026 3027 3028 3029 3030 3030 3029 3028 3028 3029 3031 3033 3033 3035 3038 3040 3043 3047 3048 3050 3052 3052 3055 3058 3061 3065 3069 3073 3076 3077 3079 3081 3083 3086 3089 3089 3087 3087 3089 3093 3096 3098 3101 3102 3102 3102 3103 3103 3103 3103 3102 3102 3102 3104 3108 3111 3113 3114 3113 3112 3113 3116 3119 3122 3126 3128 3130 3130 3127 3127 3130 3133 3134 3133 3134 3136
3022 3021 3021 3021 3021 3021 3021 3022 3023 3023 3024 3024 3025 3026 3026 3027 3028 3028 3027 3025 3027 3028 3029 3031 3031 3031 3034 3037 3041 3047 3048 3049 3050 3051 3054 3057 3059 3062 3066 3069 3072 3073 3075 3079 3082 3084 3085 3083 3081 3085 3089 3093 3096 3098 3100 3101 3100 3101 3101 3100 3101 3101 3100 3100 3100 3101 3105 3109 3111 3112 3113 3112 3114 3116 3119 3122 3125 3126 3129 3130 3127 3126 3129 3131 3131 3131 3133 3135
3020 3019 3019 3019 3019 3019 3019 3020 3021 3022 3022 3023 3024 3024 3025 3025 3025 3026 3025 3023 3023 3024 3025 3027 3028 3028 3031 3034 3037 3043 3046 3046 3048 3050 3052 3055 3057 3059 3062 3066 3068 3070 3073 3078 3080 3080 3080 3078 3080 3086 3089 3092 3095 3096 3099 3100 3099 3099 3099 3098 3098 3099 3098 3098 3099 3099 3102 3106 3109 3111 3111 3111 3114 3116 3118 3122 3123 3125 3128 3129 3128 3127 3127 3128 3128 3129 3131 3134
3017 3017 3017 3016 3017 3017 3018 3019 3020 3021 3021 3022 3023 3023 3024 3024 3025 3026 3025 3022 3021 3021 3022 3022 3024 3025 3028 3031 3033 3038 3041 3042 3045 3047 3049 3052 3054 3057 3060 3063 3065 3069 3071 3073 3074 3075 3074 3075 3080 3085 3088 3090 3092 3094 3096 3098 3098 3097 3097 3096 3094 3096 3097 3096 3097 3099 3100 3104 3107 3110 3110 3111 3113 3115 3118 3121 3122 3125 3126 3128 3129 3127 3125 3125 3125 3127 3131 3133
3015 3015 3015 3015 3015 3015 3016 3017 3018 3019 3020 3021 3022 3022 3023 3023 3024 3024 3023 3021 3018 3017 3018 3019 3021 3022 3024 3028 3032 3034 3037 3039 3042 3045 3047 3049 3051 3055 3058 3061 3064 3067 3068 3069 3071 3072 3072 3075 3080 3083 3085 3087 3089 3091 3094 3095 3095 3095 3095 3094 3091 3093 3095 3094 3095 3098 3101 3105 3107 3109 3109 3111 3112 3113 3117 3120 3121 3123 3123 3126 3129 3125 3123 3124 3124 3127 3132 3134
3013 3013 3013 3013 3013 3014 3015 3016 3017 3018 3019 3020 3021 3021 3022 3022 3023 3022 3021 3020 3016 3013 3015 3016 3017 3019 3022 3027 3029 3032 3036 3037 3039 3043 3045 3046 3050 3053 3056 3060 3062 3063 3065 3067 3070 3071 3072 3075 3078 3080 3082 3084 3086 3088 3090 3092 3093 3093 3093 3092 3091 3091 3094 3094 3094 3098 3102 3104 3105 3106 3107 3109 3112 3113 3116 3118 3119 3121 3122 3125 3127 3123 3122 3124 3124 3127 3130 3132
3011 3011 3011 3011 3012 3012 3013 3014 3016 3017 3018 3020 3020 3020 3021 3022 3023 3021 3021 3020 3014 3009 3010 3012 3013 3015 3018 3022 3025 3031 3035 3033 3035 3041 3043 3044 3048 3052 3054 3057 3058 3060 3063 3066 3069 3069 3070 3073 3075 3077 3079 3081 3084 3085 3086 3089 3091 3090 3091 3091 3091 3091 3092 3093 3094 3097 3100 3101 3103 3105 3104 3106 3110 3112 3114 3116 3117 3119 3120 3123 3124 3122 3122 3124 3124 3125 3128 3130
3008 3009 3009 3009 3010 3011 3011 3013 3015 3016 3018 3020 3020 3020 3020 3020 3022 3021 3021 3020 3011 3004 3006 3009 3011 3012 3014 3018 3022 3027 3029 3029 3033 3037 3040 3042 3046 3050 3052 3054 3056 3057 3061 3064 3065 3065 3067 3070 3072 3074 3077 3079 3080 3081 3084 3087 3088 3088 3089 3091 3090 3090 3091 3092 3094 3095 3097 3100 3103 3104 3103 3104 3106 3108 3111 3113 3116 3117 3118 3120 3122 3119 3119 3122 3123 3124 3126 3128
3006 3006 3007 3007 3008 3009 3010 3011 3014 3015 3016 3017 3018 3019 3019 3020 3021 3021 3021 3018 3008 3002 3005 3008 3010 3011 3013 3017 3020 3023 3025 3029 3031 3032 3037 3040 3043 3047 3049 3051 3054 3056 3059 3060 3059 3061 3065 3067 3068 3071 3074 3075 3076 3079 3082 3085 3086 3086 3089 3090 3090 3090 3089 3090 3092 3093 3096 3100 3101 3100 3102 3101 3101 3104 3107 3110 3113 3114 3116 3118 3119 3116 3116 3119 3122 3124 3125 3126
3004 3004 3005 3005 3006 3007 3008 3010 3012 3014 3014 3015 3016 3017 3018 3019 3020 3020 3021 3016 3005 3003 3006 3007 3010 3011 3013 3016 3019 3022 3025 3028 3030 3030 3035 3039 3040 3044 3046 3049 3053 3055 3057 3058 3058 3060 3063 3064 3067 3070 3071 3072 3074 3078 3081 3082 3084 3086 3087 3089 3090 3089 3088 3089 3089 3090 3094 3098 3097 3096 3098 3099 3097 3100 3104 3106 3108 3111 3113 3115 3114 3114 3115 3117 3120 3122 3123 3125
3001 3002 3002 3003 3004 3005 3006 3008 3011 3012 3013 3014 3015 3016 3017 3019 3019 3019 3020 3013 3003 3004 3006 3006 3009 3010 3012 3015 3017 3021 3023 3026 3029 3031 3034 3037 3039 3042 3046 3049 3052 3054 3055 3057 3058 3059 3061 3063 3066 3068 3069 3071 3073 3076 3078 3080 3083 3085 3086 3087 3089 3088 3088 3087 3086 3088 3091 3093 3094 3094 3096 3098 3097 3097 3100 3102 3105 3108 3110 3110 3111 3112 3114 3115 3118 3119 3121 3123
2998 2999 3000 3000 3002 3003 3004 3007 3008 3010 3012 3013 3013 3015 3017 3017 3018 3017 3014 3007 3003 3004 3005 3005 3008 3010 3011 3013 3016 3018 3021 3024 3027 3028 3031 3035 3037 3040 3043 3045 3047 3050 3052 3053 3054 3057 3058 3060 3062 3064 3067 3070 3072 3074 3076 3078 3082 3084 3084 3085 3086 3087 3088 3086 3083 3085 3087 3088 3091 3092 3093 3097 3097 3096 3099 3102 3104 3106 3105 3105 3108 3110 3112 3114 3116 3117 3119 3122
2996 2996 2997 2998 2999 3000 3003 3005 3006 3007 3008 3010 3012 3014 3015 3016 3016 3013 3008 3004 3004 3004 3004 3005 3007 3009 3010 3013 3015 3016 3019 3021 3024 3026 3028 3032 3034 3035 3037 3039 3041 3044 3045 3047 3050 3053 3055 3057 3059 3063 3065 3067 3069 3071 3074 3076 3079 3081 3082 3083 3084 3084 3086 3084 3078 3080 3084 3085 3088 3089 3090 3093 3094 3096 3099 3101 3101 3100 3100 3103 3107 3109 3111 3113 3114 3116 3118 3120
2993 2993 2994 2995 2996 2998 3001 3002 3004 3005 3006 3009 3011 3012 3015 3015 3011 3007 3005 3004 3003 3002 3003 3005 3006 3008 3010 3011 3013 3015 3018 3019 3021 3023 3027 3030 3032 3034 3036 3037 3039 3040 3041 3044 3047 3050 3052 3054 3057 3059 3061 3064 3066 3068 3069 3072 3075 3077 3078 3079 3080 3079 3083 3083 3077 3078 3083 3084 3086 3086 3087 3089 3092 3096 3098 3097 3097 3098 3101 3105 3107 3108 3110 3112 3114 3115 3117 3119
2990 2991 2992 2992 2994 2996 2998 3000 3002 3004 3006 3008 3009 3011 3013 3010 3005 3004 3005 3004 3002 3003 3003 3004 3005 3006 3008 3010 3011 3013 3016 3018 3019 3021 3025 3027 3029 3031 3033 3035 3037 3039 3040 3043 3044 3045 3048 3049 3050 3053 3057 3060 3063 3065 3067 3070 3072 3074 3075 3077 3077 3076 3079 3081 3078 3079 3081 3083 3084 3084 3085 3087 3090 3095 3096 3094 3095 3099 3102 3105 3106 3107 3109 3111 3113 3115 3116 3118
2987 2988 2989 2990 2992 2994 2996 2999 3000 3003 3005 3006 3008 3009 3007 3004 3003 3004 3004 3003 3003 3004 3004 3004 3005 3005 3006 3008 3010 3011 3014 3015 3017 3019 3022 3024 3025 3026 3029 3031 3033 3036 3038 3039 3041 3043 3045 3044 3046 3052 3056 3059 3061 3063 3066 3069 3070 3072 3074 3074 3074 3075 3077 3080 3081 3080 3082 3084 3082 3082 3084 3086 3088 3092 3095 3094 3095 3097 3100 3103 3104 3106 3108 3110 3112 3113 3115 3116
2985 2986 2986 2988 2990 2992 2995 2997 2999 3001 3003 3004 3006 3005 3002 3001 3003 3004 3003 3002 3003 3003 3003 3004 3005 3004 3005 3006 3007 3009 3012 3014 3015 3017 3019 3022 3023 3024 3027 3029 3031 3034 3035 3037 3039 3040 3043 3043 3046 3051 3054 3056 3059 3061 3063 3065 3067 3069 3070 3070 3072 3076 3077 3079 3082 3082 3083 3084 3080 3079 3084 3087 3089 3092 3094 3094 3095 3096 3099 3102 3104 3106 3107 3109 3110 3111 3113 3114
2983 2984 2984 2986 2988 2991 2993 2995 2997 2999 3001 3003 3003 3001 3000 3002 3003 3003 3003 3003 3003 3003 3003 3003 3003 3004 3005 3005 3005 3007 3010 3012 3013 3014 3016 3018 3020 3021 3025 3027 3029 3032 3035 3037 3038 3039 3041 3042 3044 3048 3051 3054 3058 3060 3061 3064 3066 3066 3066 3068 3073 3076 3076 3077 3079 3080 3082 3083 3078 3077 3082 3086 3087 3090 3093 3094 3095 3096 3098 3100 3102 3104 3106 3107 3108 3110 3111 3113
2981 2981 2983 2985 2987 2989 2992 2994 2996 2998 2999 3000 3000 2999 3000 3002 3003 3003 3002 3002 3002 3003 3003 3003 3003 3004 3004 3004 3004 3005 3008 3009 3010 3012 3013 3016 3016 3018 3022 3025 3028 3031 3034 3037 3038 3039 3041 3041 3043 3047 3050 3052 3056 3058 3059 3062 3065 3065 3067 3070 3073 3072 3072 3074 3075 3077 3080 3080 3077 3077 3081 3083 3084 3085 3088 3092 3093 3094 3096 3098 3100 3102 3104 3105 3107 3108 3111 3112
2980 2980 2982 2984 2986 2988 2991 2993 2995 2997 2997 2998 2998 2999 3000 3001 3002 3002 3001 3001 3002 3002 3002 3002 3003 3003 3003 3004 3003 3005 3007 3008 3009 3011 3012 3013 3014 3015 3020 3023 3025 3029 3032 3036 3038 3039 3040 3039 3041 3046 3049 3051 3054 3055 3054 3058 3062 3064 3067 3070 3071 3070 3071 3072 3072 3073 3075 3076 3076 3079 3081 3081 3082 3083 3085 3088 3090 3091 3094 3096 3098 3101 3102 3104 3106 3108 3110 3111
2979 2980 2982 2983 2985 2988 2990 2992 2994 2995 2995 2996 2997 2998 3000 3001 3002 3002 3001 3001 3002 3002 3002 3001 3002 3002 3003 3004 3004 3004 3006 3007 3009 3010 3011 3012 3013 3014 3017 3021 3024 3027 3030 3034 3037 3038 3039 3038 3039 3044 3047 3049 3049 3049 3050 3052 3057 3061 3063 3065 3068 3070 3070 3071 3071 3071 3072 3072 3073 3079 3082 3081 3081 3084 3085 3087 3088 3090 3092 3094 3097 3099 3101 3103 3105 3107 3108 3110
2979 2980 2981 2983 2985 2987 2989 2991 2992 2993 2994 2995 2996 2998 2999 3001 3001 3001 3000 3001 3002 3002 3001 3000 3001 3002 3003 3004 3004 3004 3005 3006 3007 3008 3009 3011 3012 3013 3015 3019 3022 3025 3028 3032 3035 3036 3037 3038 3039 3041 3043 3044 3045 3048 3051 3052 3055 3059 3061 3062 3064 3067 3069 3069 3069 3069 3070 3069 3068 3072 3078 3080 3080 3083 3085 3085 3087 3089 3091 3093 3095 3097 3100 3102 3104 3105 3108 3110
2978 2979 2980 2982 2985 2987 2989 2990 2991 2993 2993 2994 2995 2997 2998 2999 3000 3000 2999 3000 3001 3001 3001 3000 3001 3002 3003 3003 3004 3005 3005 3004 3005 3007 3008 3011 3012 3012 3014 3018 3020 3024 3027 3029 3032 3035 3037 3038 3039 3040 3041 3043 3045 3049 3052 3053 3055 3058 3060 3060 3062 3065 3067 3066 3066 3068 3069 3068 3068 3068 3074 3080 3080 3081 3084 3085 3085 3088 3090 3091 3093 3096 3098 3100 3102 3104 3107 3109
2977 2978 2979 2981 2984 2987 2989 2990 2991 2992 2993 2994 2995 2996 2997 2998 2999 2999 2999 3000 3000 3000 3000 3000 3000 3001 3002 3003 3004 3005 3006 3005 3003 3005 3008 3010 3011 3012 3014 3017 3019 3023 3025 3027 3031 3034 3036 3037 3039 3040 3042 3044 3047 3050 3053 3054 3054 3055 3056 3058 3059 3060 3063 3064 3066 3068 3068 3068 3068 3068 3074 3080 3079 3081 3083 3084 3085 3087 3088 3089 3091 3094 3097 3099 3101 3104 3106 3108
2977 2976 2977 2980 2983 2985 2987 2988 2991 2993 2993 2994 2995 2995 2996 2997 2998 2998 2999 2999 2999 3000 3000 2999 2999 3000 3001 3003 3003 3004 3007 3006 3003 3004 3007 3009 3010 3012 3014 3016 3018 3021 3023 3025 3029 3032 3034 3036 3037 3038 3040 3042 3044 3046 3048 3050 3050 3051 3053 3056 3056 3057 3060 3063 3065 3067 3067 3068 3067 3068 3074 3079 3080 3082 3085 3085 3086 3087 3087 3089 3091 3093 3096 3098 3100 3103 3105 3107
2976 2976 2977 2979 2982 2983 2985 2987 2990 2992 2993 2994 2995 2995 2996 2997 2997 2997 2998 2998 2998 2999 2998 2997 2998 2999 3000 3002 3002 3003 3006 3007 3005 3004 3006 3007 3009 3011 3013 3015 3017 3020 3022 3025 3028 3031 3033 3034 3035 3036 3037 3038 3038 3038 3039 3043 3046 3048 3050 3053 3055 3055 3057 3060 3063 3065 3066 3068 3068 3068 3073 3078 3080 3083 3085 3085 3086 3087 3088 3089 3091 3093 3096 3098 3100 3102 3104 3106
2977 2977 2978 2979 2981 2983 2985 2987 2988 2990 2991 2992 2993 2994 2995 2995 2996 2996 2996 2996 2996 2995 2996 2995 2996 2997 2998 3000 3001 3002 3005 3007 3006 3005 3005 3006 3008 3010 3012 3014 3017 3020 3023 3025 3028 3031 3032 3034 3035 3035 3035 3036 3036 3037 3039 3043 3045 3047 3048 3050 3053 3054 3055 3058 3059 3061 3063 3066 3067 3067 3069 3074 3078 3081 3082 3084 3085 3086 3088 3088 3090 3093 3095 3097 3099 3101 3103 3105
2977 2978 2979 2981 2982 2984 2985 2987 2987 2988 2990 2991 2992 2993 2994 2994 2995 2994 2993 2994 2994 2993 2993 2993 2993 2995 2997 2999 3000 3000 3002 3005 3006 3005 3005 3006 3008 3010 3012 3014 3017 3020 3023 3025 3028 3030 3032 3033 3034 3035 3035 3036 3037 3039 3041 3043 3044 3045 3046 3049 3051 3053 3054 3055 3056 3057 3060 3062 3066 3068 3068 3071 3076 3079 3080 3082 3083 3085 3086 3087 3090 3092 3094 3096 3098 3100 3102 3104
2977 2978 2980 2981 2982 2984 2985 2987 2988 2989 2990 2991 2991 2991 2992 2993 2993 2992 2991 2992 2992 2992 2992 2991 2992 2994 2996 2998 3000 3000 3001 3004 3004 3004 3004 3006 3008 3009 3011 3014 3017 3019 3022 3025 3028 3029 3030 3032 3032 3033 3035 3036 3037 3038 3040 3041 3042 3044 3046 3047 3050 3052 3053 3054 3055 3056 3058 3060 3065 3069 3070 3072 3075 3078 3080 3081 3083 3084 3084 3087 3090 3092 3094 3096 3098 3100 3101 3103
2978 2978 2979 2981 2982 2983 2985 2987 2988 2989 2990 2990 2990 2990 2990 2991 2991 2991 2989 2989 2990 2990 2991 2990 2991 2993 2995 2998 3000 3000 3002 3003 3003 3002 3003 3006 3008 3008 3010 3013 3015 3018 3021 3024 3027 3029 3030 3030 3031 3032 3034 3036 3037 3037 3037 3040 3041 3043 3046 3047 3048 3051 3053 3053 3054 3056 3057 3059 3065 3070 3073 3075 3076 3077 3079 3081 3082 3083 3084 3087 3091 3093 3094 3096 3098 3099 3101 3102
2979 2980 2980 2981 2982 2982 2984 2985 2987 2989 2989 2989 2988 2988 2989 2989 2989 2988 2987 2987 2988 2989 2989 2989 2990 2992 2995 2998 3000 3000 3001 3002 3002 3002 3004 3006 3006 3007 3009 3012 3014 3017 3020 3023 3026 3028 3029 3030 3030 3033 3035 3036 3037 3037 3037 3040 3042 3044 3047 3048 3049 3051 3052 3051 3053 3056 3057 3059 3065 3070 3073 3075 3077 3077 3078 3079 3080 3082 3085 3088 3091 3092 3094 3096 3097 3099 3100 3102
2981 2981 2981 2982 2982 2982 2984 2985 2986 2988 2989 2988 2987 2987 2988 2988 2987 2986 2986 2986 2986 2987 2988 2988 2989 2991 2994 2996 2999 3000 3000 3000 3001 3001 3003 3005 3006 3007 3010 3012 3015 3018 3019 3021 3024 3026 3028 3029 3030 3032 3035 3036 3037 3038 3038 3039 3041 3043 3045 3046 3046 3049 3050 3049 3053 3057 3058 3059 3064 3068 3070 3073 3075 3076 3077 3078 3081 3083 3086 3089 3090 3092 3093 3095 3096 3098 3100 3102
2981 2982 2982 2983 2982 2983 2984 2985 2986 2987 2988 2987 2987 2987 2987 2986 2986 2985 2985 2984 2984 2984 2985 2985 2987 2990 2992 2994 2996 2997 2998 3000 3000 3000 3002 3004 3006 3008 3009 3010 3014 3017 3018 3020 3023 3025 3027 3028 3030 3032 3034 3037 3038 3039 3039 3039 3040 3042 3044 3044 3044 3046 3048 3049 3053 3058 3060 3061 3063 3066 3069 3070 3072 3074 3076 3078 3081 3084 3086 3088 3090 3091 3092 3094 3096 3098 3099 3101